Overview Statistics Trail Chart Weather Telemetry Raw packets
 

This is the latest recevied weather packets stored in our database for station/object KB9HUO. If no packets are shown the sender has not sent any weather packets the latest 10 day(s).

<< 28 29 30 31 32 33 34 >>
Time Temp. Humidity Pressure Rain* Wind** Luminosity Snow
1788477321 32.78° C 62% 1015.4 hPa 0 mm - 19 W/m² -
1788477015 32.78° C 61% 1015.4 hPa 0 mm - 20 W/m² -
1788476712 32.78° C 59% 1015.2 hPa 0 mm - 21 W/m² -
1788476410 33.33° C 60% 1015.4 hPa 0 mm - 23 W/m² -
1788476103 33.33° C 59% 1015.7 hPa 0 mm - 23 W/m² -
1788475799 33.33° C 57% 1015.3 hPa 0 mm - 24 W/m² -
1788475495 33.33° C 57% 1015.2 hPa 0 mm - 25 W/m² -
1788475190 33.89° C 57% 1015.4 hPa 0 mm - 26 W/m² -
1788474890 33.89° C 57% 1015.4 hPa 0 mm - 27 W/m² -
1788474589 33.89° C 55% 1015.6 hPa 0 mm - 28 W/m² -
1788474284 33.89° C 54% 1015.4 hPa 0 mm - 29 W/m² -
1788473983 33.89° C 57% 1015.3 hPa 0 mm - 30 W/m² -
1788473678 33.89° C 57% 1015.4 hPa 0 mm - 31 W/m² -
1788473375 33.89° C 56% 1015.4 hPa 0 mm - 31 W/m² -
1788473069 34.44° C 54% 1015.4 hPa 0 mm - 32 W/m² -
1788472767 34.44° C 54% 1015.3 hPa 0 mm - 32 W/m² -
1788472464 34.44° C 53% 1015.3 hPa 0 mm - 40 W/m² -
1788472162 35° C 53% 1015.4 hPa 0 mm - 51 W/m² -
1788471858 35° C 52% 1015.4 hPa 0 mm - 65 W/m² -
1788471558 34.44° C 52% 1015.4 hPa 0 mm - 35 W/m² -
1788471253 35° C 51% 1015.5 hPa 0 mm - 41 W/m² -
1788470950 34.44° C 52% 1015.5 hPa 0 mm - 39 W/m² -
1788470645 34.44° C 54% 1015.7 hPa 0 mm - 41 W/m² -
1788470344 34.44° C 55% 1015.8 hPa 0 mm - 39 W/m² -
1788470040 35° C 53% 1015.8 hPa 0 mm - 40 W/m² -

* Rain latest hour (hover to see other rain measurements)
** Current wind speed in m/s (hover to see current wind gust speed)